SL-3 R/B

Satellite information

Favourite Embed

Satellite Type and Status

ROCKET BODYIN ORBIT

Key statistics

Satellite SL-3 R/B at a glance.

Uptime

19407

Days in orbit

Revolutions

≈ 14.1

Per day

Orbit

LEO

Low Earth Orbit

Inclination

81.3

Latest

Satellite identification and parameters

Extended collection of information and parameters for SL-3 R/B.

Object identification

Identified? True

Debris? False

Object name: SL-3 R/B

International designator: 1972-085B

Object number (NORAD): 6257

Object ID (CCSDS): 6257

Country: COMMONWEALTH OF INDEPENDENT STATES (CIS)

Current information (Y/N): Y

RCS size: LARGE

Orbital parameters

Period: 102.356 minutes

Inclination: 81.259 deg

SMA: 7248.303 km

Apoapsis: 911.974 km

Periapsis: 828.363 km

RAAN: 44.2265 deg

Eccentricy: 0.00576766

Argument of periapsis: 44.3906 deg

Mean anomaly: 316.1865 deg

Mean motion: 14.0685137 rev/day

Mean motion (dot): 0.00000047 rev/day2

B* drag term: 0.000020003868 1/REarth

Two-line elements (TLE)

Creation date: Dec. 12, 2025, 10:14 a.m.

Reference frame: TEME

Reference center: EARTH

Epoch: Dec. 12, 2025, 5:58 a.m. UTC

TLE line 0: 0 SL-3 R/B

TLE line 1: 1 06257U 72085B 25346.24867552 .00000047 00000-0 20004-4 0 9992

TLE line 2: 2 06257 81.2590 44.2265 0057677 44.3906 316.1865 14.06851370725018

Live tracking on map

Real-time ground track for satellite SL-3 R/B.

In-orbit conjunctions

A list of the most updated potential collisions computed for object SL-3 R/B.

Target Orbit TCA Probability of collision Miss distance Type
DMSP 5D-2 F14 DEB SSO 2025-03-14 03:49:20 0.000108179 488.0 (m) DEBRIS
CZ-6A DEB SSO 2024-11-11 07:53:31 0.0002440304 101.0 (m) DEBRIS
CZ-6A DEB SSO 2024-10-04 23:39:57 0.0001265229 114.0 (m) DEBRIS
COSMOS 1275 DEB LEO 2024-09-28 14:00:39 0.0001391554 529.0 (m) DEBRIS
FENGYUN 1C DEB SSO 2024-09-02 19:23:12 0.0001943355 112.0 (m) DEBRIS

Associated space launch

The Meteor-1 series was the first series of Soviet meteorological satellites.

SL-3 R/B was lifted into orbit during the mission ‘Vostok 8A92M | Meteor-1 13 (25L)’, on board a Vostok 8A92M space rocket.

The launch took place on Oct. 26, 1972, 10:05 p.m. from 43/4 (43R).

For more information about the launch, click the button.

Launch to space Vostok 8A92M | Meteor-1 13 (25L)
Vostok 8A92M | Meteor-1 13 (25L)

Agency: N/A

Status: Launch Successful

Launch date: Oct. 26, 1972, 10:05 p.m. UTC

Rocket: Vostok 8A92M

Launch pad: 43/4 (43R)

Location: Plesetsk Cosmodrome, Russian Federation

...

Latest news about this satellite

There are no fresh news available about this satellite. Check back as we update our databases every day.


Newsletter sign-up

Weekly statistics, charts and insights to help you stay on top of the space industry.